Temperature
16 15 15 15 15 14 14 14 14 14 14 14 14 14 14 14 14 14 13 14 13 13 13 13 13 13 13 13 13 12 12 12 12 11 11 10 10 10 10 10 10 10 10
16 15 15 15 15 14 14 14 14 14 14 14 14 14 14 14 13 13 13 13 13 13 13 13 13 13 13 13 13 12 12 12 12 11 11 10 10 10 10 10 10 10 10
16 15 15 15 15 15 14 14 14 14 14 14 14 13 13 13 13 13 13 13 13 13 13 13 13 12 12 13 12 12 12 12 12 11 11 11 10 10 10 10 10 10 9
16 15 15 15 15 15 14 14 14 14 14 13 13 13 13 13 13 13 13 13 13 13 13 13 12 12 12 12 12 12 12 12 11 11 11 10 10 10 10 10 10 9 9
15 15 15 15 15 14 14 14 14 14 13 13 13 13 13 13 13 13 13 13 13 13 13 12 12 12 12 12 12 12 12 11 11 11 11 10 10 10 10 10 10 9 9
15 15 15 15 14 14 14 14 14 13 13 13 13 13 13 13 13 13 13 13 12 12 12 12 12 12 12 12 12 12 12 11 11 11 11 11 10 10 10 10 10 9 9
15 15 14 14 14 14 14 14 13 13 13 13 13 13 13 13 13 13 13 12 12 12 12 12 12 12 12 12 12 12 12 12 11 11 11 10 10 10 10 10 9 9 9
15 14 14 14 14 14 14 13 13 13 13 13 13 13 13 12 13 13 12 12 12 12 12 12 12 11 11 11 11 11 11 11 11 11 11 10 10 10 10 10 9 9 9
14 14 14 14 14 14 13 13 13 13 13 13 12 12 12 12 12 12 12 12 12 12 12 12 11 11 11 11 11 11 11 11 11 11 11 10 10 10 10 10 9 9 9
14 14 14 14 14 13 13 13 13 13 12 12 12 12 12 12 12 12 12 12 12 12 12 12 12 11 11 11 11 10 10 10 10 10 10 10 10 10 10 9 9 8 8
14 14 14 14 14 13 13 13 13 12 12 12 12 12 12 12 12 12 12 11 11 11 11 11 11 11 11 11 10 10 10 10 10 10 10 10 9 9 9 9 9 8 8
14 14 13 13 13 13 13 13 12 12 12 12 12 11 11 11 11 11 11 11 11 11 11 11 11 11 11 10 10 10 10 10 9 9 9 9 9 9 9 9 8 8 8
14 14 13 13 13 13 13 12 12 12 12 11 11 11 11 11 11 11 11 11 11 11 11 11 10 10 10 10 10 10 9 9 9 9 9 9 9 8 8 8 8 8 8
13 13 13 13 12 12 12 12 12 11 11 11 11 11 11 11 11 11 11 11 10 10 10 10 10 10 10 9 9 9 9 9 9 9 8 8 8 8 8 8 7 7 7
13 13 12 12 12 12 12 12 12 12 12 11 11 11 11 11 11 11 10 10 10 10 10 10 10 9 9 9 9 9 9 9 9 8 8 8 8 8 7 7 7 7 6
12 12 12 12 12 12 12 12 12 11 11 11 11 11 11 11 10 10 10 10 10 9 9 9 9 9 9 9 9 9 8 8 8 8 8 8 7 7 7 7 7 6 6
12 12 12 12 12 12 11 11 11 11 11 11 11 11 10 10 10 10 10 9 9 9 9 9 8 8 8 8 8 8 8 8 8 8 7 7 7 7 7 6 6 6 6
12 12 12 11 11 11 11 11 11 11 11 10 10 10 10 10 10 10 9 9 9 9 9 9 8 8 8 8 8 8 8 7 7 7 7 7 7 6 6 6 6 5 5
11 11 11 11 11 11 11 11 10 10 10 10 10 10 10 9 9 9 9 9 9 9 8 8 8 8 8 8 7 7 7 7 7 7 7 6 6 6 6 6 5 5 5
11 11 11 11 10 10 10 10 10 10 9 9 9 9 9 9 9 9 9 9 8 8 8 8 8 8 8 7 7 7 7 7 6 6 6 6 5 5 5 5 5 4 4
10 10 10 10 10 10 10 10 10 9 9 9 9 9 9 9 9 8 8 8 8 8 8 8 8 7 7 7 7 6 6 6 6 6 5 5 5 5 5 5 4 4 4
10 10 10 10 9 9 9 9 9 9 9 8 8 9 9 8 8 8 8 8 8 8 8 8 7 7 7 7 7 6 6 6 6 5 5 5 4 4 4 4 4 3 3
9 9 9 9 9 9 9 9 9 8 8 8 8 8 8 8 8 8 8 8 7 7 7 7 7 7 7 6 6 6 6 6 5 5 5 4 4 4 4 4 3 3 3
9 9 9 9 8 8 8 8 8 8 8 8 8 8 8 8 7 7 7 7 7 7 7 7 7 7 6 6 6 6 6 5 5 5 4 4 4 4 3 3 3 2 2
8 8 8 8 8 8 8 8 8 8 8 8 7 7 7 7 7 7 7 7 7 7 7 7 6 6 6 6 6 6 5 5 5 4 4 4 4 3 3 3 2 2 2
8 8 8 8 8 8 8 8 7 7 7 7 7 7 7 7 7 7 7 7 7 6 6 6 6 6 6 6 5 5 5 5 4 4 4 4 3 3 3 2 2 2 1
Wind_Speed
9 8 8 6 6 6 5 5 4 4 4 4 4 3 3 3 3 3 2 2 2 2 2 2 2 2 2 2 1 1 1 1 2 3 3 3 3 2 3 2 2 2 3
8 9 8 7 7 6 5 5 5 5 4 4 4 4 3 3 2 2 2 2 2 2 2 2 2 2 2 2 1 2 2 2 3 4 3 3 3 2 2 2 1 1 1
8 9 8 8 8 7 6 6 5 5 5 5 5 4 4 4 3 3 3 3 2 2 2 2 2 3 2 2 2 2 2 2 2 3 3 2 3 2 2 2 2 2 1
8 8 9 9 8 7 7 6 6 6 5 5 5 5 4 4 4 4 3 3 3 2 2 2 2 3 3 3 2 2 2 3 3 3 3 3 3 3 3 2 2 2 2
8 8 8 8 8 7 7 7 6 6 5 5 5 5 4 4 4 4 4 3 3 3 3 3 2 2 2 1 1 2 2 2 3 3 3 3 3 3 3 3 3 3 3
8 8 7 7 7 7 7 7 6 6 6 6 6 6 5 4 3 3 4 4 4 4 4 3 3 4 4 3 1 1 1 2 3 3 3 4 4 3 3 3 3 3 3
7 7 7 8 7 7 7 7 6 7 7 6 6 6 6 5 6 6 5 4 4 5 4 4 3 3 4 4 5 5 2 1 2 3 3 3 3 3 4 4 4 4 4
8 7 7 8 8 7 7 7 7 7 6 6 6 6 5 5 7 7 7 6 5 5 5 5 5 5 5 4 4 4 3 3 3 3 3 3 3 3 4 4 4 5 4
8 8 8 8 8 8 8 8 7 7 6 6 6 6 6 6 8 8 7 5 5 5 5 5 5 5 5 5 5 4 4 3 3 3 2 1 1 2 3 3 4 4 4
7 7 7 8 9 9 9 8 7 6 6 6 6 7 7 6 8 9 9 5 5 5 4 5 5 5 6 7 6 5 5 4 4 4 4 4 5 5 6 5 4 4 4
6 6 6 7 8 8 8 7 7 7 7 7 7 6 7 6 8 9 9 6 5 5 5 5 5 7 7 7 7 5 4 4 4 3 3 3 3 3 4 5 4 4 4
5 5 6 7 7 7 7 7 7 7 7 7 7 6 5 5 6 7 9 7 5 5 5 5 4 8 7 7 6 4 3 4 4 4 3 3 3 3 3 4 5 5 5
5 5 5 6 6 6 7 7 7 7 6 6 6 6 5 5 5 7 9 9 7 6 4 3 3 6 6 6 6 6 6 5 4 4 4 4 3 3 3 3 4 4 5
5 5 5 6 6 6 6 6 6 7 7 7 7 6 6 5 5 5 6 6 7 6 5 5 6 6 6 4 5 6 6 5 5 4 4 3 2 3 3 3 3 3 3
5 5 5 5 5 5 6 5 7 7 7 7 7 7 6 7 6 6 6 6 5 5 5 4 4 5 5 5 4 5 5 5 5 4 4 4 4 4 4 3 3 4 4
5 5 4 4 4 5 5 4 2 4 4 6 6 6 6 5 6 8 8 6 5 6 5 5 5 5 5 5 5 5 4 4 5 4 4 4 4 4 4 3 4 4 4
5 5 4 4 4 5 5 4 4 2 2 4 5 5 5 5 7 8 8 7 7 9 6 5 5 5 5 5 5 4 4 4 3 4 4 4 4 4 4 4 4 4 5
5 5 5 4 5 5 4 5 4 4 4 3 4 5 6 6 7 7 8 7 5 7 6 6 6 5 5 5 4 4 4 4 4 4 4 4 4 4 4 5 4 5 5
5 4 5 4 4 4 4 4 4 5 5 4 3 4 5 6 6 7 9 6 6 6 6 6 5 5 5 4 4 4 4 4 4 4 4 4 4 4 4 4 4 4 5
5 4 4 5 5 4 5 5 5 5 5 5 5 4 4 4 4 5 6 6 6 6 6 6 5 5 5 5 5 5 5 4 5 4 4 4 4 4 5 5 4 4 4
4 5 5 5 5 5 5 5 5 5 5 5 5 5 6 6 6 7 7 7 6 6 6 6 6 5 5 5 5 6 6 5 5 5 4 4 4 4 4 4 4 5 5
4 5 6 6 5 5 5 5 5 5 6 6 4 4 6 5 5 5 6 6 6 6 6 6 5 5 5 6 6 6 6 5 5 4 4 4 4 4 4 4 4 5 5
5 5 5 5 5 5 5 5 5 5 5 5 5 4 5 5 5 5 6 6 5 6 6 6 6 5 6 6 6 6 6 6 6 5 5 5 5 5 5 5 6 6 6
5 5 6 5 5 5 6 6 6 6 6 6 5 5 5 5 5 6 5 5 5 6 6 6 6 7 8 7 7 7 7 7 7 7 7 6 6 5 5 5 6 6 6
5 5 5 6 6 6 6 6 6 6 5 5 5 5 5 5 5 5 5 5 5 5 6 6 6 7 9 9 8 8 7 7 7 7 7 6 6 6 6 6 6 6 6
5 5 5 5 6 6 6 6 6 6 6 5 5 5 5 5 5 5 5 4 4 5 5 6 7 8 8 8 9 8 8 9 9 9 7 6 6 6 6 6 7 7 7
Wind_Direction
193 188 186 188 189 188 189 184 183 180 180 178 175 170 158 150 152 154 151 135 131 132 132 119 115 121 141 142 151 161 168 166 158 143 145 152 157 160 134 130 118 122 107
196 193 191 186 186 191 191 187 188 185 186 189 182 180 171 166 164 165 163 164 164 153 139 137 134 126 135 149 157 156 149 166 175 163 165 171 178 177 178 181 181 166 129
197 195 192 191 191 192 193 191 191 190 189 192 192 189 189 183 175 182 186 186 183 181 170 159 156 155 155 139 159 161 151 152 168 175 171 173 192 195 196 204 207 215 221
197 196 197 197 194 193 194 193 195 193 193 196 197 195 197 198 195 194 192 191 190 183 179 176 174 172 170 151 154 159 158 158 165 177 180 186 195 203 215 220 219 212 233
198 199 200 197 192 193 194 193 193 195 201 196 200 199 199 205 207 202 197 194 190 183 188 186 165 112 59 107 157 163 169 178 181 189 193 196 204 206 222 228 235 241 235
201 200 194 193 191 192 196 197 193 195 202 196 202 204 202 209 176 215 232 199 200 195 193 189 172 170 155 152 128 45 331 211 207 208 214 217 222 221 227 236 237 244 249
202 197 193 194 192 194 196 196 195 199 202 203 207 208 210 196 174 195 224 223 215 208 201 196 186 178 183 182 167 172 187 246 275 255 232 237 242 232 227 235 240 251 263
202 196 195 196 194 197 200 199 202 203 200 208 212 210 211 196 181 190 201 220 222 215 212 211 205 201 201 204 199 198 206 202 211 227 240 251 260 249 236 244 250 253 253
206 202 196 196 196 197 200 202 204 203 202 206 208 208 209 200 188 194 202 213 220 219 214 214 217 213 167 190 209 213 219 217 189 213 282 282 293 267 253 238 235 241 252
210 209 200 198 198 201 203 202 202 203 206 207 209 213 214 211 186 195 210 211 217 218 216 212 213 217 179 192 212 218 225 230 222 204 212 223 229 217 219 232 239 242 253
212 208 202 200 201 204 203 201 199 200 204 209 211 215 217 213 188 193 208 219 221 221 219 216 205 183 192 205 227 232 233 242 236 233 232 233 229 221 217 223 233 246 252
204 204 204 203 200 198 196 199 201 200 204 209 212 213 215 208 204 196 203 223 243 228 228 224 199 173 191 208 221 211 204 224 230 226 227 233 235 229 224 222 227 234 248
200 203 204 202 201 198 195 197 200 201 208 211 211 213 213 210 200 195 200 208 222 230 226 206 180 176 193 209 206 201 208 220 223 227 232 239 240 234 226 221 223 228 243
203 202 200 200 200 200 201 203 203 205 210 213 214 215 212 206 206 201 202 204 203 217 216 183 178 187 206 210 202 205 216 220 222 227 232 234 227 221 223 225 229 229 243
203 200 201 203 199 201 203 210 213 216 217 218 218 216 214 214 207 199 202 208 207 205 200 194 196 199 209 212 214 214 213 211 217 222 224 229 231 231 231 230 235 239 247
207 202 201 202 200 201 203 207 218 242 219 225 235 231 223 217 184 188 201 203 188 178 193 207 209 214 219 220 217 216 216 216 219 219 219 224 229 231 232 231 231 241 250
212 208 205 207 204 204 206 210 211 215 197 218 222 224 228 200 187 189 192 188 184 185 205 215 217 220 223 224 222 219 220 219 220 220 220 224 228 230 232 234 236 243 251
216 213 210 208 211 210 212 215 215 214 213 219 213 204 199 191 187 184 177 173 193 204 219 221 221 221 223 223 222 220 220 218 220 224 225 225 226 230 234 237 239 246 254
216 217 213 211 210 209 209 213 215 216 216 214 209 193 189 185 181 179 176 200 210 214 219 222 221 220 220 220 223 221 218 218 222 225 228 231 231 233 240 244 246 249 257
215 216 218 208 205 204 207 210 212 213 215 214 211 204 184 185 196 192 200 212 217 218 217 219 219 219 218 218 218 218 220 221 223 226 228 230 234 238 240 243 246 251 257
212 205 206 210 207 208 211 213 215 216 216 218 218 205 194 201 205 205 208 211 215 217 215 215 216 216 217 216 216 217 219 222 224 226 228 232 236 241 247 248 249 255 262
213 209 207 210 211 213 215 215 216 217 218 221 221 200 188 210 213 214 214 217 219 220 219 216 217 216 214 214 215 216 219 223 225 226 230 233 237 243 247 250 252 255 258
216 214 210 210 211 207 213 216 216 217 219 220 218 213 205 215 220 221 219 218 218 218 218 216 216 216 215 215 215 217 222 224 225 226 228 232 236 239 242 246 251 259 260
216 216 214 212 212 213 216 218 218 219 222 223 222 219 218 220 224 224 221 221 220 219 216 215 217 219 218 215 217 220 225 226 226 226 228 233 237 241 243 246 252 257 262
215 216 217 217 215 217 219 221 222 222 222 224 225 225 225 226 227 226 223 219 219 221 221 220 219 220 222 221 222 221 216 213 219 227 227 230 236 239 242 245 248 254 260
215 216 218 220 221 221 221 222 225 226 227 227 227 228 228 228 229 226 222 220 220 221 223 223 224 225 225 223 222 216 209 207 211 219 224 227 231 236 238 243 250 252 259
Height
1545 1547 1548 1550 1552 1553 1554 1555 1556 1557 1557 1558 1558 1558 1559 1559 1559 1559 1559 1559 1559 1559 1559 1559 1559 1559 1560 1560 1560 1560 1560 1561 1561 1561 1561 1561 1561 1560 1560 1559 1559 1558 1557
1542 1544 1546 1548 1549 1551 1552 1553 1555 1555 1556 1557 1557 1557 1557 1557 1558 1558 1558 1558 1558 1558 1558 1558 1559 1558 1558 1559 1559 1559 1559 1559 1560 1560 1560 1560 1560 1560 1559 1558 1558 1557 1557
1540 1542 1544 1545 1547 1549 1550 1551 1552 1553 1554 1554 1555 1556 1556 1556 1556 1556 1557 1557 1557 1557 1557 1557 1558 1558 1558 1558 1557 1558 1558 1558 1558 1559 1559 1559 1559 1559 1558 1558 1557 1556 1556
1537 1539 1541 1543 1545 1546 1548 1549 1550 1551 1552 1552 1553 1553 1554 1554 1555 1555 1555 1555 1555 1556 1556 1556 1556 1557 1557 1557 1556 1557 1557 1557 1557 1558 1558 1558 1558 1557 1557 1557 1557 1556 1555
1534 1536 1538 1540 1542 1543 1545 1546 1547 1548 1549 1550 1550 1551 1552 1552 1553 1553 1553 1554 1554 1554 1554 1555 1555 1555 1555 1555 1555 1555 1555 1555 1556 1556 1556 1556 1556 1556 1556 1555 1555 1555 1554
1531 1533 1535 1537 1538 1540 1542 1543 1544 1545 1546 1547 1548 1549 1549 1550 1550 1551 1551 1552 1552 1553 1553 1553 1553 1553 1553 1553 1553 1554 1554 1554 1555 1555 1555 1555 1555 1554 1554 1553 1553 1553 1552
1528 1530 1531 1534 1535 1537 1539 1540 1541 1542 1543 1544 1545 1546 1547 1547 1548 1548 1549 1550 1550 1551 1551 1551 1551 1551 1551 1551 1551 1551 1552 1552 1552 1553 1552 1552 1552 1552 1551 1551 1551 1550 1550
1525 1526 1528 1530 1532 1534 1535 1537 1538 1539 1540 1541 1542 1543 1544 1544 1545 1546 1546 1547 1547 1548 1548 1549 1549 1549 1549 1549 1549 1549 1549 1549 1549 1549 1549 1549 1549 1549 1549 1549 1548 1547 1547
1521 1523 1525 1527 1528 1530 1531 1533 1534 1536 1537 1538 1539 1540 1540 1541 1542 1542 1543 1544 1544 1545 1545 1546 1546 1546 1546 1547 1547 1547 1547 1546 1546 1546 1546 1546 1545 1545 1545 1545 1545 1545 1544
1518 1520 1521 1523 1525 1526 1528 1529 1531 1532 1533 1534 1535 1536 1537 1538 1538 1539 1540 1540 1541 1541 1542 1542 1543 1543 1543 1544 1544 1544 1543 1543 1543 1542 1542 1542 1542 1542 1541 1541 1541 1541 1540
1514 1516 1518 1519 1521 1523 1524 1526 1527 1528 1530 1531 1532 1532 1533 1534 1535 1535 1536 1537 1537 1538 1538 1538 1539 1540 1540 1540 1540 1541 1540 1541 1540 1539 1539 1539 1538 1538 1537 1537 1537 1537 1537
1511 1512 1514 1516 1518 1519 1521 1522 1523 1525 1526 1527 1528 1529 1529 1530 1531 1531 1532 1533 1534 1534 1534 1535 1535 1536 1536 1536 1536 1537 1537 1537 1536 1536 1536 1535 1535 1534 1534 1533 1533 1532 1532
1508 1509 1511 1512 1514 1515 1517 1518 1519 1520 1522 1523 1524 1524 1525 1526 1526 1527 1528 1529 1530 1530 1530 1531 1531 1532 1532 1532 1532 1533 1533 1533 1533 1532 1532 1531 1531 1530 1530 1529 1529 1528 1527
1505 1506 1508 1509 1510 1512 1513 1514 1515 1516 1517 1518 1519 1520 1520 1521 1522 1523 1524 1525 1525 1526 1526 1527 1527 1528 1528 1528 1528 1528 1528 1528 1528 1528 1528 1527 1527 1526 1526 1525 1525 1524 1523
1502 1503 1504 1505 1507 1508 1509 1510 1511 1512 1513 1514 1515 1516 1516 1517 1518 1519 1519 1520 1521 1521 1522 1522 1523 1523 1524 1524 1524 1524 1524 1524 1524 1524 1524 1523 1523 1522 1522 1521 1521 1520 1519
1499 1500 1501 1502 1503 1504 1505 1506 1507 1508 1509 1510 1511 1512 1512 1513 1514 1514 1515 1516 1517 1518 1518 1518 1519 1519 1519 1519 1519 1519 1519 1519 1520 1520 1519 1519 1519 1518 1518 1517 1517 1516 1515
1495 1496 1497 1498 1499 1500 1501 1502 1503 1504 1505 1506 1506 1507 1508 1509 1509 1510 1511 1512 1513 1514 1514 1514 1514 1515 1515 1515 1515 1515 1515 1515 1515 1515 1515 1514 1514 1514 1514 1513 1512 1512 1511
1492 1493 1493 1494 1495 1496 1497 1498 1499 1500 1500 1501 1502 1503 1504 1504 1505 1506 1507 1508 1508 1509 1509 1509 1510 1510 1510 1510 1510 1510 1510 1510 1510 1510 1510 1510 1510 1510 1509 1509 1508 1508 1507
1487 1489 1490 1491 1492 1493 1493 1494 1495 1496 1496 1497 1497 1498 1499 1500 1501 1501 1502 1503 1503 1503 1504 1505 1505 1505 1505 1506 1506 1506 1506 1506 1506 1505 1505 1505 1505 1505 1505 1504 1504 1503 1502
1483 1484 1485 1486 1488 1488 1489 1490 1491 1492 1492 1493 1493 1493 1494 1495 1495 1496 1497 1498 1498 1499 1499 1500 1500 1501 1501 1501 1501 1501 1501 1501 1501 1500 1500 1500 1500 1500 1499 1499 1499 1498 1497
1479 1480 1481 1482 1483 1484 1485 1486 1487 1487 1488 1488 1489 1489 1489 1490 1491 1491 1492 1493 1493 1494 1494 1495 1495 1496 1496 1496 1496 1496 1496 1496 1496 1496 1495 1495 1495 1495 1494 1494 1493 1493 1492
1475 1476 1477 1478 1479 1480 1481 1482 1482 1483 1483 1484 1484 1484 1485 1486 1486 1487 1487 1488 1488 1489 1490 1490 1490 1490 1491 1491 1491 1491 1491 1491 1491 1491 1490 1490 1490 1490 1489 1489 1488 1487 1487
1470 1471 1472 1474 1475 1476 1477 1477 1478 1478 1479 1479 1480 1480 1480 1481 1481 1482 1482 1482 1483 1484 1484 1485 1485 1485 1486 1486 1486 1486 1486 1486 1486 1486 1486 1486 1485 1485 1484 1483 1483 1482 1481
1466 1467 1468 1469 1470 1471 1472 1472 1473 1474 1474 1475 1475 1475 1475 1476 1476 1477 1477 1477 1478 1479 1479 1479 1480 1480 1481 1481 1481 1481 1481 1481 1481 1481 1481 1480 1480 1479 1479 1478 1478 1477 1476
1461 1462 1463 1464 1466 1467 1467 1468 1468 1469 1469 1470 1470 1471 1471 1471 1471 1472 1472 1472 1473 1473 1473 1474 1474 1475 1475 1475 1475 1476 1476 1476 1476 1476 1475 1475 1474 1474 1474 1473 1472 1472 1471
1456 1457 1458 1459 1461 1462 1462 1463 1463 1464 1464 1465 1465 1466 1466 1466 1466 1467 1467 1467 1467 1468 1468 1468 1469 1469 1469 1470 1470 1470 1470 1470 1470 1470 1470 1469 1469 1468 1468 1467 1467 1466 1465